Time,TemperatureF,DewpointF,PressureIn,WindDirection,WindDirectionDegrees,WindSpeedMPH,WindSpeedGustMPH,Humidity,HourlyPrecipIn,Conditions,Clouds,dailyrainin,SoftwareType,DateUTC
2013-05-23 00:03:00,52.0,50.0,29.90,NE,42,0.0,-999.0,94,-99.99,,,-99.99,,2013-05-23 04:03:00,
2013-05-23 00:12:00,52.0,50.0,29.90,NE,42,0.0,-999.0,94,-99.99,,,-99.99,,2013-05-23 04:12:00,
2013-05-23 00:22:00,53.0,51.0,29.90,NE,42,0.0,-999.0,94,-99.99,,,-99.99,,2013-05-23 04:22:00,
2013-05-23 00:33:00,53.0,51.0,29.90,NE,42,0.0,-999.0,94,-99.99,,,-99.99,,2013-05-23 04:33:00,
2013-05-23 00:43:00,53.0,51.0,29.90,NE,42,0.0,-999.0,94,-99.99,,,-99.99,,2013-05-23 04:43:00,
2013-05-23 00:52:00,53.0,51.0,29.90,NE,42,0.0,-999.0,94,-99.99,,,-99.99,,2013-05-23 04:52:00,
2013-05-23 01:43:00,52.0,50.0,29.88,East,92,0.0,-999.0,94,-99.99,,,-99.99,,2013-05-23 05:43:00,
2013-05-23 01:52:00,52.0,50.0,29.88,East,92,0.0,-999.0,94,-99.99,,,-99.99,,2013-05-23 05:52:00,
2013-05-23 02:02:00,53.0,51.0,29.87,East,92,0.0,-999.0,94,-99.99,,,-99.99,,2013-05-23 06:02:00,
2013-05-23 02:12:00,53.0,51.0,29.87,East,92,0.0,-999.0,94,-99.99,,,-99.99,,2013-05-23 06:12:00,
2013-05-23 02:21:00,53.0,51.0,29.88,East,92,0.0,-999.0,94,-99.99,,,-99.99,,2013-05-23 06:21:00,
2013-05-23 02:32:00,53.0,51.0,29.88,East,92,0.0,-999.0,94,-99.99,,,-99.99,,2013-05-23 06:32:00,
2013-05-23 02:42:00,53.0,51.0,29.88,East,92,0.0,-999.0,94,-99.99,,,-99.99,,2013-05-23 06:42:00,
2013-05-23 02:52:00,53.0,51.0,29.86,East,92,0.0,-999.0,94,-99.99,,,-99.99,,2013-05-23 06:52:00,
2013-05-23 03:02:00,53.0,51.0,29.86,East,90,0.0,-999.0,94,-99.99,,,-99.99,,2013-05-23 07:02:00,
2013-05-23 03:11:00,53.0,51.0,29.86,East,90,0.0,-999.0,94,-99.99,,,-99.99,,2013-05-23 07:11:00,
2013-05-23 03:22:00,53.0,51.0,29.85,East,90,0.0,-999.0,94,-99.99,,,-99.99,,2013-05-23 07:22:00,
2013-05-23 03:32:00,53.0,51.0,29.85,East,90,0.0,-999.0,94,-99.99,,,-99.99,,2013-05-23 07:32:00,
2013-05-23 03:42:00,53.0,51.0,29.85,East,90,0.0,-999.0,94,-99.99,,,-99.99,,2013-05-23 07:42:00,
2013-05-23 03:59:00,53.0,52.0,29.84,East,90,0.0,-999.0,95,-99.99,,,-99.99,,2013-05-23 07:59:00,
2013-05-23 04:11:00,53.0,52.0,29.84,East,90,0.0,-999.0,95,-99.99,,,-99.99,,2013-05-23 08:11:00,
2013-05-23 04:22:00,53.0,52.0,29.84,East,90,0.0,-999.0,95,-99.99,,,-99.99,,2013-05-23 08:22:00,
2013-05-23 04:32:00,53.0,52.0,29.84,East,90,0.0,-999.0,95,-99.99,,,-99.99,,2013-05-23 08:32:00,
2013-05-23 04:42:00,53.0,52.0,29.84,East,90,0.0,-999.0,95,-99.99,,,-99.99,,2013-05-23 08:42:00,
2013-05-23 04:51:00,53.0,52.0,29.84,East,90,0.0,-999.0,95,-99.99,,,-99.99,,2013-05-23 08:51:00,
2013-05-23 05:02:00,53.0,52.0,29.84,East,90,0.0,-999.0,95,-99.99,,,-99.99,,2013-05-23 09:02:00,
2013-05-23 05:11:00,53.0,52.0,29.84,East,90,0.0,-999.0,95,-99.99,,,-99.99,,2013-05-23 09:11:00,
2013-05-23 05:22:00,53.0,52.0,29.85,East,90,0.0,-999.0,95,-99.99,,,-99.99,,2013-05-23 09:22:00,
2013-05-23 05:33:00,53.0,52.0,29.85,East,90,0.0,-999.0,95,-99.99,,,-99.99,,2013-05-23 09:33:00,
2013-05-23 05:42:00,53.0,52.0,29.85,East,90,0.0,-999.0,95,-99.99,,,-99.99,,2013-05-23 09:42:00,
2013-05-23 05:53:00,53.0,52.0,29.85,East,90,0.0,-999.0,95,-99.99,,,-99.99,,2013-05-23 09:53:00,
2013-05-23 06:03:00,53.0,52.0,29.85,East,90,0.0,-999.0,95,-99.99,,,-99.99,,2013-05-23 10:03:00,
2013-05-23 06:13:00,53.0,52.0,29.85,East,90,0.0,-999.0,95,-99.99,,,-99.99,,2013-05-23 10:13:00,
2013-05-23 06:22:00,53.0,52.0,29.85,East,90,0.0,-999.0,95,-99.99,,,-99.99,,2013-05-23 10:22:00,
2013-05-23 06:32:00,53.0,52.0,29.85,East,90,0.0,-999.0,95,-99.99,,,-99.99,,2013-05-23 10:32:00,
2013-05-23 06:42:00,53.0,52.0,29.85,East,90,0.0,-999.0,95,-99.99,,,-99.99,,2013-05-23 10:42:00,
2013-05-23 06:52:00,53.0,52.0,29.86,East,90,0.0,-999.0,95,-99.99,,,-99.99,,2013-05-23 10:52:00,
2013-05-23 07:02:00,54.0,53.0,29.87,East,84,0.0,-999.0,95,-99.99,,,-99.99,,2013-05-23 11:02:00,
2013-05-23 07:11:00,54.0,53.0,29.87,East,84,0.0,-999.0,95,-99.99,,,-99.99,,2013-05-23 11:11:00,
2013-05-23 07:22:00,54.0,53.0,29.87,ENE,74,0.0,-999.0,95,-99.99,,,-99.99,,2013-05-23 11:22:00,
2013-05-23 07:32:00,54.0,53.0,29.86,ENE,72,0.0,-999.0,95,-99.99,,,-99.99,,2013-05-23 11:32:00,
2013-05-23 07:42:00,54.0,53.0,29.86,ENE,72,0.0,-999.0,95,-99.99,,,-99.99,,2013-05-23 11:42:00,
2013-05-23 07:52:00,54.0,53.0,29.86,ENE,63,0.0,-999.0,95,-99.99,,,-99.99,,2013-05-23 11:52:00,
2013-05-23 08:01:00,54.0,53.0,29.86,NE,37,0.0,-999.0,95,-99.99,,,-99.99,,2013-05-23 12:01:00,
2013-05-23 08:12:00,54.0,53.0,29.86,NE,37,0.0,-999.0,95,-99.99,,,-99.99,,2013-05-23 12:12:00,
2013-05-23 08:21:00,55.0,54.0,29.86,NE,38,0.0,-999.0,95,-99.99,,,-99.99,,2013-05-23 12:21:00,
2013-05-23 08:32:00,55.0,54.0,29.85,NE,38,0.0,-999.0,95,-99.99,,,-99.99,,2013-05-23 12:32:00,
2013-05-23 08:42:00,55.0,54.0,29.85,NE,38,0.0,-999.0,95,-99.99,,,-99.99,,2013-05-23 12:42:00,
2013-05-23 08:52:00,56.0,55.0,29.86,NE,38,0.0,-999.0,95,-99.99,,,-99.99,,2013-05-23 12:52:00,
2013-05-23 09:02:00,56.0,55.0,29.86,NE,38,0.0,-999.0,95,-99.99,,,-99.99,,2013-05-23 13:02:00,
2013-05-23 09:11:00,56.0,55.0,29.86,NE,38,0.0,-999.0,95,-99.99,,,-99.99,,2013-05-23 13:11:00,
2013-05-23 09:22:00,56.0,55.0,29.85,NE,39,0.0,-999.0,95,-99.99,,,-99.99,,2013-05-23 13:22:00,
2013-05-23 09:32:00,56.0,55.0,29.86,NE,39,0.0,-999.0,95,-99.99,,,-99.99,,2013-05-23 13:32:00,
2013-05-23 09:42:00,56.0,55.0,29.86,NE,39,0.0,-999.0,95,-99.99,,,-99.99,,2013-05-23 13:42:00,
2013-05-23 09:52:00,57.0,56.0,29.86,NE,39,0.0,-999.0,95,-99.99,,,-99.99,,2013-05-23 13:52:00,
2013-05-23 10:02:00,57.0,56.0,29.86,NE,38,0.0,-999.0,95,-99.99,,,-99.99,,2013-05-23 14:02:00,
2013-05-23 10:11:00,57.0,56.0,29.86,NE,38,0.0,-999.0,95,-99.99,,,-99.99,,2013-05-23 14:11:00,
2013-05-23 10:21:00,58.0,57.0,29.87,NE,38,0.0,-999.0,95,-99.99,,,-99.99,,2013-05-23 14:21:00,
2013-05-23 10:32:00,59.0,58.0,29.86,NE,37,0.0,-999.0,95,-99.99,,,-99.99,,2013-05-23 14:32:00,
2013-05-23 10:42:00,59.0,58.0,29.86,NE,37,0.0,-999.0,95,-99.99,,,-99.99,,2013-05-23 14:42:00,
2013-05-23 10:52:00,59.0,58.0,29.85,ENE,74,0.0,-999.0,95,-99.99,,,-99.99,,2013-05-23 14:52:00,
2013-05-23 11:01:00,60.0,59.0,29.85,East,94,0.0,-999.0,95,-99.99,,,-99.99,,2013-05-23 15:01:00,
2013-05-23 11:11:00,60.0,59.0,29.85,East,94,0.0,-999.0,95,-99.99,,,-99.99,,2013-05-23 15:11:00,
2013-05-23 11:22:00,61.0,60.0,29.85,East,94,0.0,-999.0,96,-99.99,,,-99.99,,2013-05-23 15:22:00,
2013-05-23 11:33:00,64.0,63.0,29.85,SE,132,0.0,-999.0,96,-99.99,,,-99.99,,2013-05-23 15:33:00,
2013-05-23 11:42:00,64.0,63.0,29.85,SE,132,0.0,-999.0,96,-99.99,,,-99.99,,2013-05-23 15:42:00,
2013-05-23 11:53:00,65.0,64.0,29.85,SSE,150,0.0,-999.0,95,-99.99,,,-99.99,,2013-05-23 15:53:00,
2013-05-23 12:03:00,66.0,64.0,29.85,SSE,154,0.0,-999.0,94,-99.99,,,-99.99,,2013-05-23 16:03:00,
2013-05-23 12:12:00,66.0,64.0,29.85,SSE,154,0.0,-999.0,94,-99.99,,,-99.99,,2013-05-23 16:12:00,
2013-05-23 12:23:00,68.0,66.0,29.85,South,183,0.0,-999.0,93,-99.99,,,-99.99,,2013-05-23 16:23:00,
2013-05-23 12:34:00,69.0,66.0,29.85,SSE,150,1.0,-999.0,90,-99.99,,,-99.99,,2013-05-23 16:34:00,
2013-05-23 12:42:00,69.0,66.0,29.85,SSE,150,1.0,-999.0,90,-99.99,,,-99.99,,2013-05-23 16:42:00,
2013-05-23 12:52:00,71.0,67.0,29.84,SSE,165,0.0,-999.0,88,-99.99,,,-99.99,,2013-05-23 16:52:00,
2013-05-23 13:03:00,72.0,67.0,29.84,South,185,1.0,-999.0,85,-99.99,,,-99.99,,2013-05-23 17:03:00,
2013-05-23 13:11:00,72.0,67.0,29.84,South,185,1.0,-999.0,85,-99.99,,,-99.99,,2013-05-23 17:11:00,
2013-05-23 13:23:00,73.0,68.0,29.83,South,180,2.0,-999.0,85,-99.99,,,-99.99,,2013-05-23 17:23:00,
2013-05-23 13:33:00,72.0,67.0,29.83,South,172,1.0,-999.0,85,-99.99,,,-99.99,,2013-05-23 17:33:00,
2013-05-23 13:43:00,72.0,67.0,29.83,South,172,1.0,-999.0,85,-99.99,,,-99.99,,2013-05-23 17:43:00,
2013-05-23 13:53:00,73.0,68.0,29.81,SSE,148,2.0,-999.0,84,-99.99,,,-99.99,,2013-05-23 17:53:00,
2013-05-23 14:01:00,75.0,68.0,29.81,SSW,203,2.0,-999.0,79,-99.99,,,-99.99,,2013-05-23 18:01:00,
2013-05-23 14:11:00,75.0,68.0,29.81,SSW,203,2.0,-999.0,79,-99.99,,,-99.99,,2013-05-23 18:11:00,
2013-05-23 14:22:00,76.0,68.0,29.81,South,191,3.0,-999.0,77,-99.99,,,-99.99,,2013-05-23 18:22:00,
2013-05-23 14:32:00,75.0,67.0,29.81,SW,236,4.0,-999.0,77,-99.99,,,-99.99,,2013-05-23 18:32:00,
2013-05-23 14:42:00,75.0,67.0,29.81,SW,236,4.0,-999.0,77,-99.99,,,-99.99,,2013-05-23 18:42:00,
2013-05-23 14:52:00,75.0,67.0,29.81,SW,227,3.0,-999.0,77,-99.99,,,-99.99,,2013-05-23 18:52:00,
2013-05-23 15:01:00,75.0,67.0,29.81,South,191,2.0,-999.0,76,-99.99,,,-99.99,,2013-05-23 19:01:00,
2013-05-23 15:11:00,75.0,67.0,29.81,South,191,2.0,-999.0,76,-99.99,,,-99.99,,2013-05-23 19:11:00,
2013-05-23 15:21:00,75.0,67.0,29.81,SSW,207,1.0,-999.0,77,-99.99,,,-99.99,,2013-05-23 19:21:00,
2013-05-23 15:32:00,75.0,67.0,29.81,South,188,2.0,-999.0,77,-99.99,,,-99.99,,2013-05-23 19:32:00,
2013-05-23 15:42:00,75.0,67.0,29.81,South,188,2.0,-999.0,77,-99.99,,,-99.99,,2013-05-23 19:42:00,
2013-05-23 15:52:00,74.0,66.0,29.81,South,190,4.0,-999.0,76,-99.99,,,-99.99,,2013-05-23 19:52:00,
2013-05-23 16:02:00,74.0,66.0,29.81,SSE,155,3.0,-999.0,77,-99.99,,,-99.99,,2013-05-23 20:02:00,
2013-05-23 16:11:00,74.0,66.0,29.81,SSE,155,3.0,-999.0,77,-99.99,,,-99.99,,2013-05-23 20:11:00,
2013-05-23 16:21:00,74.0,66.0,29.81,SSW,200,3.0,-999.0,77,-99.99,,,-99.99,,2013-05-23 20:21:00,
2013-05-23 16:32:00,74.0,66.0,29.80,SSW,197,1.0,-999.0,77,-99.99,,,-99.99,,2013-05-23 20:32:00,
2013-05-23 16:42:00,74.0,66.0,29.80,SSW,197,1.0,-999.0,77,-99.99,,,-99.99,,2013-05-23 20:42:00,
2013-05-23 16:52:00,74.0,67.0,29.80,SSW,192,1.0,-999.0,78,-99.99,,,-99.99,,2013-05-23 20:52:00,
2013-05-23 17:01:00,73.0,66.0,29.80,SSW,213,1.0,-999.0,79,-99.99,,,-99.99,,2013-05-23 21:01:00,
2013-05-23 17:11:00,73.0,66.0,29.80,SSW,213,1.0,-999.0,79,-99.99,,,-99.99,,2013-05-23 21:11:00,
2013-05-23 17:22:00,73.0,66.0,29.80,SSW,200,1.0,-999.0,80,-99.99,,,-99.99,,2013-05-23 21:22:00,
2013-05-23 17:32:00,72.0,65.0,29.80,SSE,158,2.0,-999.0,80,-99.99,,,-99.99,,2013-05-23 21:32:00,
2013-05-23 17:43:00,72.0,65.0,29.80,SSE,158,2.0,-999.0,80,-99.99,,,-99.99,,2013-05-23 21:43:00,
2013-05-23 17:53:00,72.0,65.0,29.80,SSE,163,2.0,-999.0,79,-99.99,,,-99.99,,2013-05-23 21:53:00,
2013-05-23 18:03:00,72.0,65.0,29.80,South,188,4.0,-999.0,79,-99.99,,,-99.99,,2013-05-23 22:03:00,
2013-05-23 18:12:00,72.0,65.0,29.80,South,188,4.0,-999.0,79,-99.99,,,-99.99,,2013-05-23 22:12:00,
2013-05-23 18:22:00,72.0,65.0,29.80,SSE,150,4.0,-999.0,79,-99.99,,,-99.99,,2013-05-23 22:22:00,
2013-05-23 18:33:00,72.0,65.0,29.81,South,188,5.0,-999.0,80,-99.99,,,-99.99,,2013-05-23 22:33:00,
2013-05-23 18:42:00,72.0,65.0,29.81,South,188,5.0,-999.0,80,-99.99,,,-99.99,,2013-05-23 22:42:00,
2013-05-23 18:52:00,72.0,65.0,29.81,South,186,5.0,-999.0,80,-99.99,,,-99.99,,2013-05-23 22:52:00,
2013-05-23 19:02:00,71.0,65.0,29.81,South,175,3.0,-999.0,80,-99.99,,,-99.99,,2013-05-23 23:02:00,
2013-05-23 19:11:00,71.0,65.0,29.81,South,175,3.0,-999.0,80,-99.99,,,-99.99,,2013-05-23 23:11:00,
2013-05-23 19:21:00,71.0,65.0,29.81,WSW,246,3.0,-999.0,80,-99.99,,,-99.99,,2013-05-23 23:21:00,
2013-05-23 19:32:00,71.0,65.0,29.81,SW,216,2.0,-999.0,81,-99.99,,,-99.99,,2013-05-23 23:32:00,
2013-05-23 19:42:00,71.0,65.0,29.81,SW,216,2.0,-999.0,81,-99.99,,,-99.99,,2013-05-23 23:42:00,
2013-05-23 19:52:00,70.0,64.0,29.81,SSW,196,2.0,-999.0,82,-99.99,,,-99.99,,2013-05-23 23:52:00,
2013-05-23 20:01:00,70.0,64.0,29.81,South,180,2.0,-999.0,82,-99.99,,,-99.99,,2013-05-24 00:01:00,
2013-05-23 20:12:00,70.0,64.0,29.81,South,180,2.0,-999.0,82,-99.99,,,-99.99,,2013-05-24 00:12:00,
2013-05-23 20:21:00,70.0,64.0,29.81,SSW,200,2.0,-999.0,82,-99.99,,,-99.99,,2013-05-24 00:21:00,
2013-05-23 20:32:00,69.0,64.0,29.81,South,188,3.0,-999.0,83,-99.99,,,-99.99,,2013-05-24 00:32:00,
2013-05-23 20:42:00,69.0,64.0,29.81,South,188,3.0,-999.0,83,-99.99,,,-99.99,,2013-05-24 00:42:00,
2013-05-23 20:52:00,69.0,64.0,29.80,SW,224,2.0,-999.0,83,-99.99,,,-99.99,,2013-05-24 00:52:00,
2013-05-23 21:01:00,69.0,64.0,29.80,South,173,2.0,-999.0,83,-99.99,,,-99.99,,2013-05-24 01:01:00,
2013-05-23 21:12:00,69.0,64.0,29.80,South,173,2.0,-999.0,83,-99.99,,,-99.99,,2013-05-24 01:12:00,
2013-05-23 21:22:00,69.0,64.0,29.80,SE,139,2.0,-999.0,84,-99.99,,,-99.99,,2013-05-24 01:22:00,
2013-05-23 21:32:00,69.0,64.0,29.80,South,180,3.0,-999.0,84,-99.99,,,-99.99,,2013-05-24 01:32:00,
2013-05-23 21:42:00,69.0,64.0,29.80,South,180,3.0,-999.0,84,-99.99,,,-99.99,,2013-05-24 01:42:00,
2013-05-23 21:52:00,68.0,63.0,29.80,SSE,168,3.0,-999.0,84,-99.99,,,-99.99,,2013-05-24 01:52:00,
2013-05-23 22:02:00,68.0,63.0,29.79,SSW,197,3.0,-999.0,84,-99.99,,,-99.99,,2013-05-24 02:02:00,
2013-05-23 22:12:00,68.0,63.0,29.79,SSW,197,3.0,-999.0,84,-99.99,,,-99.99,,2013-05-24 02:12:00,
2013-05-23 22:22:00,68.0,63.0,29.80,South,179,3.0,-999.0,84,-99.99,,,-99.99,,2013-05-24 02:22:00,
2013-05-23 22:32:00,68.0,63.0,29.80,South,182,2.0,-999.0,85,-99.99,,,-99.99,,2013-05-24 02:32:00,
2013-05-23 22:42:00,68.0,63.0,29.80,South,182,2.0,-999.0,85,-99.99,,,-99.99,,2013-05-24 02:42:00,
2013-05-23 22:52:00,68.0,63.0,29.80,South,182,2.0,-999.0,85,-99.99,,,-99.99,,2013-05-24 02:52:00,
2013-05-23 23:02:00,66.0,63.0,29.78,South,182,3.0,-999.0,90,-99.99,,,-99.99,,2013-05-24 03:02:00,
2013-05-23 23:11:00,65.0,62.0,29.78,South,190,2.0,-999.0,91,-99.99,,,-99.99,,2013-05-24 03:11:00,
2013-05-23 23:22:00,65.0,62.0,29.78,South,190,2.0,-999.0,91,-99.99,,,-99.99,,2013-05-24 03:22:00,
2013-05-23 23:33:00,65.0,63.0,29.77,South,169,3.0,-999.0,92,-99.99,,,-99.99,,2013-05-24 03:33:00,
2013-05-23 23:42:00,65.0,63.0,29.77,South,169,3.0,-999.0,92,-99.99,,,-99.99,,2013-05-24 03:42:00,
2013-05-23 23:53:00,65.0,63.0,29.77,ESE,120,4.0,-999.0,93,-99.99,,,-99.99,,2013-05-24 03:53:00,